Location: Aigremont
(47.7188°N, 3.8925°E)
Time: 03:00:16
(UTC+00:00)

STARLINK-1193 - Pass Details

Date: 18 February 2020
Orbit: 374 x 385 km, 53.0° (Epoch: 03 April)

Event Time Altitude Azimuth Distance (km) Brightness Sun altitude
Exits shadow 03:55:09 13° 54° (NE) 1,265 6.2 -29.3°
Drops below altitude 10° 03:55:37 10° 57° (ENE) 1,441 6.6 -29.2°
Enters shadow 04:51:27 -69° 263° (W) 12,361 10.5 -20.0°
